sat.trackr.live / text

‹ back to catalog

STARLINK-2113

NORAD 47392 · 2021-005AV

PAYLOAD ACTIVE UNKNOWN

§ Identity

Operator
Country
US
Launch date
2021-01-20
Launch site
AFETR
Launch vehicle
Mass (kg)
RCS (m²)

Purposes: comms

External: N2YO · Heavens-Above · Gunter

§ Orbital elements

Epoch: 2026-07-26T21:49:13.412928Z

Period
87.83 min
Inclination
53.0241°
Eccentricity
0.0008131
Mean motion
16.39511036 rev/d
Perigee alt
161.8 km
Apogee alt
172.4 km
Semi-major
6,545.2 km
B*
6.0991e-4
RAAN
39.0577°
Arg perigee
293.5606°
Mean anomaly
66.4585°
Rev number
30,566

§ Raw data

STARLINK-21131 47392U 21005AV  26207.90918302  .07996520  12401-4  60991-3 0  99902 47392  53.0241  39.0577 0008131 293.5606  66.4585 16.39511036305666

JSON: /api/v1/satellites/47392 · /tle

For live sub-satellite position, see the globe view (requires WebGL).

§ Visibility from observer

Set your observer location to see the next 7 days of passes ≥ 10°. The values pass through the URL so the page stays shareable.

No JS? Fill the form by hand. The geolocation button needs JavaScript.